Starlink 31645

operational
NORAD ID: 59264 Int'l Des: 2024-050 Owner: SPXS Country: US Constellation: starlink
LEOCIRCULAR

Starlink 31645について

説明を読み込み中...

リアルタイム位置

3D地球を読み込み中...

次回通過

高度履歴

Altitude vs Time

uPlot chart will show altitude changes over time

軌道要素

1 59264U 24050L 25306.50058014 .00029091 00000-0 98988-3 0 9992
2 59264 53.1610 51.8940 0001436 99.6997 260.4166 15.30219354 91079
Epoch: Nov 2, 2025 • Age: 21 hours

現在のステータス

高度 489.9 km
速度 7.62 km/s
衛星直下点 -42.60°S, 86.73°E
打ち上げ日 Mar 19, 2024
運用期間 1.6 years
タイプ internet

技術仕様

分類 Payload
質量 730.00 kg
乾燥質量 700.00 kg
総質量 730.00 kg
長さ 0.30 m
直径 4.10 m
スパン 29.00 m
形状 Box + pan
製造者 SPXS
バスタイプ Starlink V2M
フェーズステータス In Orbit
所有者/国 SPXS/US

大規模コンステレーション

Loading constellations...